STARLINK-34419 (64412 NORAD) Tracking and Keplerian Element Data

This shows tracking and keplerian element data for the satellite.

Feedback or suggestion? Click here.




ElementValue
Catalog64412
NameSTARLINK-34419
Epoch Orbit2938
Epoch Day354.11267447
Epoch Year2025
RAAN275.2439
Inclination70.0025
Eccentricity0.0002122
Argument of Perigee246.1687
Mean Anonmoly113.925
Mean Motion14.98330605
Decay Rate1.648E-05
L11 64412U 25129A 25354.11267447 .00001648 00000+0 14587-3 0 9993
L22 64412 70.0025 275.2439 0002122 246.1687 113.9250 14.98330605 29388



Live tracking and technical data element details for STARLINK-34419 (NORAD 64412). STARLINK-34419 can be tracked NOW for your location showing map with azimuth and elevation plus other details from your city location.







IsCatalogInMostPopularTable: catalog: 64412, numindb: 3
Update: records affected: 1



GetName: 64412 STARLINK-34419

Hit Count: updated at: Sun, 08 Feb 2026 09:10:27 GMT